Weather reports worldwide

Advertisment
Olbia/Costa Smeralda, Italy (16531): temperature & dewpoint: 16.07.2019 21:00:00 - 22.07.2019 21:00:00 (CEST)Olbia/Costa Smeralda, Italy (16531): wind speed: 16.07.2019 21:00:00 - 22.07.2019 21:00:00 (CEST)Olbia/Costa Smeralda, Italy (16531): wind direction: 16.07.2019 21:00:00 - 22.07.2019 21:00:00 (CEST)Olbia/Costa Smeralda, Italy (16531): reduced air pressure: 16.07.2019 21:00:00 - 22.07.2019 21:00:00 (CEST)Olbia/Costa Smeralda, Italy (16531): visibility: 16.07.2019 21:00:00 - 22.07.2019 21:00:00 (CEST)Olbia/Costa Smeralda, Italy (16531): precipitation: 16.07.2019 21:00:00 - 22.07.2019 21:00:00 (CEST)
Date & Time tt [°C] td [°C] ff [km/h] ff [kn] dd ppp [hPa] vv [km] rr [mm]
22.07.2019 21:00:00 27,0 19,0 5 3 ENE - 10 -
22.07.2019 20:00:00 28,3 19,1 13 7 ENE 1019,4 10 -
22.07.2019 19:00:00 30,0 17,0 13 7 ENE - 10 -
22.07.2019 18:00:00 31,0 16,0 16 9 ENE - 10 -
22.07.2019 17:00:00 32,0 15,2 15 8 NE 1019,7 10 0,0
22.07.2019 16:00:00 31,0 18,0 15 8 E - 10 -
22.07.2019 15:00:00 30,0 20,0 21 11 ENE - 10 -
22.07.2019 14:00:00 29,8 20,7 21 11 ENE 1021,0 10 -
22.07.2019 13:00:00 29,0 22,0 21 11 ENE - 10 -
22.07.2019 12:00:00 30,0 22,0 16 9 ENE - 10 -
22.07.2019 11:00:00 29,2 21,8 13 7 E 1021,5 10 0,0
22.07.2019 10:00:00 29,0 16,0 5 3 - - 10 -
22.07.2019 09:00:00 28,0 15,0 2 1 - - 10 -
22.07.2019 08:00:00 23,0 16,6 2 1 - 1021,3 10 -
22.07.2019 07:00:00 19,0 16,0 2 1 - - 10 -
22.07.2019 06:00:00 19,0 16,0 4 2 - - 10 -
22.07.2019 05:00:00 18,6 16,2 5 3 SE 1020,9 10 0,0
22.07.2019 04:00:00 20,0 17,0 2 1 - - 10 -
22.07.2019 03:00:00 21,0 17,0 2 1 - - 10 -
22.07.2019 02:00:00 20,1 16,6 4 2 SSE 1021,2 10 -
22.07.2019 01:00:00 22,0 17,0 8 4 SW - 10 -
22.07.2019 00:00:00 23,0 19,0 4 2 - - 10 -
21.07.2019 23:00:00 24,2 21,2 8 4 W 1020,9 10 0,0
21.07.2019 22:00:00 25,0 21,0 4 2 - - 10 -
21.07.2019 21:00:00 27,0 21,0 5 3 NE - 10 -
21.07.2019 20:00:00 28,5 20,6 13 7 E 1019,4 10 -
21.07.2019 19:00:00 32,0 15,0 15 8 E - 10 -
21.07.2019 18:00:00 32,0 12,0 18 10 E - 10 -
21.07.2019 17:00:00 32,8 15,3 21 11 E 1019,5 10 0,0
21.07.2019 16:00:00 33,0 12,0 16 9 E - 10 -
21.07.2019 15:00:00 33,0 13,0 21 11 ENE - 10 -
21.07.2019 14:00:00 33,1 13,9 22 12 E 1020,2 10 -
21.07.2019 13:00:00 33,0 17,0 18 10 E - 10 -
21.07.2019 12:00:00 32,0 18,0 16 9 E - 10 -
21.07.2019 11:00:00 29,6 19,1 13 7 NNE 1020,1 10 0,0
21.07.2019 10:00:00 28,0 18,0 5 3 - - 10 -
21.07.2019 09:00:00 26,0 18,0 2 1 - - 10 -
21.07.2019 08:00:00 22,2 17,6 8 4 SW 1020,5 10 -
21.07.2019 07:00:00 18,0 17,0 4 2 SW - 10 -
21.07.2019 06:00:00 18,0 17,0 8 4 WSW - 10 -
21.07.2019 05:00:00 18,5 17,3 2 1 - 1019,7 10 0,0
21.07.2019 04:00:00 20,0 18,0 2 1 - - 10 -
21.07.2019 03:00:00 20,0 19,0 2 1 - - 10 -
21.07.2019 02:00:00 20,7 19,2 4 2 - 1019,7 10 -
21.07.2019 01:00:00 22,0 20,0 4 2 - - 10 -
21.07.2019 00:00:00 23,0 20,0 5 3 SSW - 10 -
20.07.2019 23:00:00 23,3 19,9 2 1 - 1019,0 10 0,0
20.07.2019 22:00:00 25,0 21,0 2 1 - - 10 -
20.07.2019 21:00:00 27,0 21,0 8 4 E - 10 -
20.07.2019 20:00:00 28,0 20,6 15 8 E 1017,8 10 -
20.07.2019 19:00:00 30,0 21,0 15 8 E - 10 -
20.07.2019 18:00:00 30,0 20,0 22 12 E - 10 -
20.07.2019 17:00:00 30,4 19,5 18 10 E 1017,8 10 0,0
20.07.2019 16:00:00 31,0 20,0 21 11 E - 10 -
20.07.2019 15:00:00 31,0 19,0 21 11 E - 10 -
20.07.2019 14:00:00 30,9 19,9 21 11 E 1018,1 10 -
20.07.2019 13:00:00 30,0 20,0 24 13 ENE - 10 -
20.07.2019 12:00:00 30,0 21,0 24 13 ENE - 10 -
20.07.2019 11:00:00 28,7 21,0 22 12 ENE 1017,8 10 0,0
20.07.2019 10:00:00 27,0 21,0 11 6 NNE - 10 -
20.07.2019 09:00:00 25,0 20,0 2 1 - - 10 -
20.07.2019 08:00:00 22,1 18,5 2 1 - 1017,6 10 -
20.07.2019 07:00:00 18,0 17,0 2 1 - - 10 -
20.07.2019 06:00:00 - - - - - - - -
20.07.2019 05:00:00 18,5 17,6 0 0 N 1016,8 - 0,0
20.07.2019 04:00:00 - - - - - - - -
20.07.2019 03:00:00 - - - - - - - -
20.07.2019 02:00:00 20,4 19,3 2 1 SSW 1016,9 - -
20.07.2019 01:00:00 - - - - - - - -
20.07.2019 00:00:00 - - - - - - - -
19.07.2019 23:00:00 23,6 21,0 0 0 N 1016,7 - 0,0
19.07.2019 22:00:00 - - - - - - - -
19.07.2019 21:00:00 26,0 21,0 9 5 E - 10 -
19.07.2019 20:00:00 27,6 20,7 11 6 E 1015,7 10 -
19.07.2019 19:00:00 29,0 18,0 13 7 E - 10 -
19.07.2019 18:00:00 30,0 16,0 13 7 E - 10 -
19.07.2019 17:00:00 30,2 15,5 16 9 E 1015,6 10 0,0
19.07.2019 16:00:00 30,0 16,0 18 10 E - 10 -
19.07.2019 15:00:00 30,0 17,0 21 11 E - 10 -
19.07.2019 14:00:00 29,6 18,2 22 12 E 1016,1 10 -
19.07.2019 13:00:00 30,0 19,0 22 12 ENE - 10 -
19.07.2019 12:00:00 30,0 16,0 21 11 ENE - 10 -
19.07.2019 11:00:00 30,1 13,5 5 3 - 1015,8 10 0,0
19.07.2019 10:00:00 28,0 14,0 16 9 WSW - 10 -
19.07.2019 09:00:00 26,0 15,0 24 13 SW - 10 -
19.07.2019 08:00:00 23,9 16,3 18 10 SW 1015,6 10 -
19.07.2019 07:00:00 22,0 18,0 26 14 SW - 10 -
19.07.2019 06:00:00 22,0 18,0 29 16 WSW - 10 -
19.07.2019 05:00:00 22,2 18,6 22 12 SW 1014,5 10 0,0
19.07.2019 04:00:00 23,0 19,0 21 11 SW - 10 -
19.07.2019 03:00:00 23,0 19,0 24 13 SW - 10 -
19.07.2019 02:00:00 23,5 19,4 24 13 WSW 1014,4 10 -
19.07.2019 01:00:00 24,0 19,0 18 10 WSW - 10 -
19.07.2019 00:00:00 24,0 19,0 9 5 WSW - 10 -
18.07.2019 23:00:00 23,8 20,0 5 3 - 1014,1 10 0,0
18.07.2019 22:00:00 26,0 20,0 5 3 NNE - 10 -
18.07.2019 21:00:00 27,0 19,0 9 5 E - 10 -
18.07.2019 20:00:00 27,8 17,6 11 6 ENE 1012,2 10 -
18.07.2019 19:00:00 29,0 18,0 15 8 E - 10 -
18.07.2019 18:00:00 30,0 17,0 16 9 ENE - 10 -
18.07.2019 17:00:00 30,1 16,8 22 12 ENE 1012,0 10 0,0
18.07.2019 16:00:00 31,0 16,0 16 9 ENE - 10 -
18.07.2019 15:00:00 31,0 17,0 15 8 E - 10 -
18.07.2019 14:00:00 29,6 17,6 21 11 E 1012,2 10 -
18.07.2019 13:00:00 - - - - - - - -
18.07.2019 12:00:00 31,0 13,0 8 4 - - 10 -
18.07.2019 11:00:00 29,4 13,6 9 5 SW 1012,4 10 0,0
18.07.2019 10:00:00 27,0 16,0 11 6 WSW - 10 -
18.07.2019 09:00:00 25,0 18,0 15 8 WSW - 10 -
18.07.2019 08:00:00 23,5 18,2 4 2 - 1012,6 10 -
18.07.2019 07:00:00 20,0 18,0 2 1 - - 10 -
18.07.2019 06:00:00 21,0 18,0 13 7 WSW - 10 -
18.07.2019 05:00:00 21,2 18,1 16 9 SW 1011,5 10 0,0
18.07.2019 04:00:00 21,0 18,0 21 11 SW - 10 -
18.07.2019 03:00:00 22,0 19,0 15 8 SW - 10 -
18.07.2019 02:00:00 21,8 18,5 9 5 SW 1012,6 10 -
18.07.2019 01:00:00 22,0 18,0 13 7 SW - 10 -
18.07.2019 00:00:00 22,0 18,0 8 4 SW - 10 -
17.07.2019 23:00:00 23,3 18,2 8 4 WNW 1012,9 10 0,0
17.07.2019 22:00:00 24,0 19,0 5 3 ENE - 10 -
17.07.2019 21:00:00 26,0 18,0 8 4 E - 10 -
17.07.2019 20:00:00 27,0 16,6 9 5 E 1012,4 10 -
17.07.2019 19:00:00 29,0 13,0 13 7 E - 10 -
17.07.2019 18:00:00 30,0 14,0 16 9 E - 10 -
17.07.2019 17:00:00 29,5 14,2 18 10 E 1012,7 10 0,0
17.07.2019 16:00:00 30,0 13,0 22 12 E - 10 -
17.07.2019 15:00:00 30,0 12,0 21 11 E - 10 -
17.07.2019 14:00:00 29,9 14,5 22 12 ENE 1013,0 10 -
17.07.2019 13:00:00 30,0 15,0 21 11 NE - 10 -
17.07.2019 12:00:00 30,0 12,0 5 3 - - 10 -
17.07.2019 11:00:00 29,0 13,2 9 5 - 1014,1 10 0,0
17.07.2019 10:00:00 27,0 14,0 16 9 WSW - 10 -
17.07.2019 09:00:00 25,0 16,0 16 9 WSW - 10 -
17.07.2019 08:00:00 22,1 16,6 16 9 SW 1014,2 10 -
17.07.2019 07:00:00 - - - - - - - -
17.07.2019 06:00:00 - - - - - - - -
17.07.2019 05:00:00 20,0 17,2 5 3 W 1014,0 - 0,0
17.07.2019 04:00:00 - - - - - - - -
17.07.2019 03:00:00 - - - - - - - -
17.07.2019 02:00:00 20,7 16,0 0 0 N 1014,5 - -
17.07.2019 01:00:00 - - - - - - - -
17.07.2019 00:00:00 - - - - - - - -
16.07.2019 23:00:00 22,5 16,6 4 2 - 1014,6 10 0,0
16.07.2019 22:00:00 25,0 15,0 9 5 NNW - 10 -
16.07.2019 21:00:00 26,0 15,0 13 7 NNW - 10 -

tt = temperature
td = dewpoint
ff = wind speed
dd = wind direction
ppp = reduced air pressure
vv = visibility
rr = precipitation

Next stations